Voltar ao catálogo

STARLINK-34140

AtivoComunicaçõesVLEO
NORAD 64085·PAYLOAD·🇺🇸 United States

Lançado May 21, 2025 de Cape Canaveral Space Force Station

Loading…

Próximas Passagens (próximas 24 horas)

TLE

AtualizadoSource: CelesTrak SupGP

Época: Sep 14, 2026, 23:00 UTC

1 64085C 25107X   26257.95881944 -.00003185  00000+0 -11532-3 0  2578
2 64085  43.0020 212.7014 0001501 271.1408 179.8267 15.27585786    16

Acompanhe STARLINK-34140 em tempo real com AllMySat

Download on the App Store